Location: Ferintosh
(52.7647°N, 112.9692°W)
Time: 22:24:30
(UTC+00:00)

S-56A Canister/Altair - Pass Details

Date: 21 May 2024
Orbit: 637 x 2489 km, 38.9° (Epoch: 19 June)

Event Time Altitude Azimuth Distance (km) Brightness Sun altitude
Rises 15:35:29 0° 241° (WSW) 5,454 11.5 35.1°
Reaches altitude 10° 15:39:56 10° 233° (SW) 4,155 11.0 35.8°
Maximum altitude 15:48:36 31° 178° (S) 2,261 10.4 37.1°
Drops below altitude 10° 15:54:50 10° 119° (ESE) 2,943 11.7 38.0°
Sets 15:57:26 0° 108° (ESE) 3,679 12.0 38.3°
